Regional Weather Roundup
Issued by NWS

Home | Current Version | Previous Version | Text Only | Print | Product List | Glossary Off
Versions: 1 2 3 4 5 6 7 8 9 10 11 12 13 14 15 16 17 18 19 20 21 22 23 24 25 26 27 28 29 30 31 32 33 34 35 36 37 38 39 40 41 42 43 44 45 46 47 48 49 50

719
ASUS45 KTFX 240910
RWRMT
MONTANA REGIONAL WEATHER ROUNDUP
NATIONAL WEATHER SERVICE GREAT FALLS MT
200 AM MST TUE JAN 24 2017

NOTE: "FAIR" INDICATES FEW OR NO CLOUDS BELOW 12000 FEET WITH NO
SIGNIFICANT WEATHER AND/OR OBSTRUCTIONS TO VISIBILITY.

MTZ001>007-043-241000-
WEST OF THE DIVIDE

CITY           SKY/WX    TMP DP  RH WIND       PRES   REMARKS
KALISPELL      CLEAR      8   6  92 VRB3      29.84S
MISSOULA       MOCLDY    22  18  85 CALM      29.84R
BUTTE          CLOUDY    16  11  80 CALM      29.71S
MULLAN PASS    CLOUDY    19  15  84 CALM      29.72R
ANACONDA         N/A     18  10  73 CALM      29.76S
DEER LODGE       N/A     14   9  79 W8        29.79S WCI   3
EUREKA           N/A     10   7  85 CALM      29.89R
HAMILTON         N/A     21  19  93 CALM      29.79R
$$

MTZ008-052>055-241000-
SOUTHWEST MONTANA

CITY           SKY/WX    TMP DP  RH WIND       PRES   REMARKS
BOZEMAN        CLOUDY    21  19  92 SW5       29.74R
DILLON         CLOUDY    20  13  74 CALM      29.67R
W YELLOWSTONE  LGT SNOW  18  14  86 N6        29.56R WCI   9
ENNIS          CLOUDY    18  14  86 N18G25    29.69R WCI   2
$$

MTZ009-010-012-014-046-048-049-054-241000-
EAST SLOPES AND CENTRAL MONTANA

CITY           SKY/WX    TMP DP  RH WIND       PRES   REMARKS
CUT BANK       CLOUDY     4   1  88 CALM      29.81S
GREAT FALLS    CLOUDY    17  14  88 SW3       29.85S
MALMSTROM AFB  CLOUDY    18  16  93 SW6       29.87S WCI   9
HELENA         CLOUDY    19  14  81 W7        29.82S WCI  10
BOWMANS CRNR   MOCLDY    15  14  94 W3        29.79S
CHOTEAU          N/A      9   7  92 S8        29.84S WCI  -4
POWER          CLOUDY    17  16  95 SW6       29.83S WCI   8
RAYNESFORD     CLOUDY    17  16  95 NW7       29.83S WCI   8
ULM            MOCLDY    17  16  96 MISG      29.85F
$$

MTZ011-013-016-021-045-047-050-051-241000-
NORTH CENTRAL MONTANA

CITY           SKY/WX    TMP DP  RH WIND       PRES   REMARKS
HAVRE          CLOUDY    21  18  88 W10       29.86S WCI  10
LEWISTOWN      CLOUDY    17  15  92 W6        29.80S WCI   9
CHINOOK          N/A     21  18  86 NW6       29.87S WCI  14
DENTON         CLOUDY    18  16  95 N9G17     29.81S WCI   6
FORT BENTON      N/A     21  16  79 MISG      29.90S
GEYSER           N/A     14  12  92 W10       29.81R WCI   1
GRASS RANGE    MOCLDY    18  15  89 W15       29.77S WCI   3
JUDITH GAP     MOCLDY    16  14  92 N17       29.75S FOG     WCI   0
ROY            FLURRIES  17  16  95 MISG      29.80S
STANFORD       MOCLDY    14  13  93 W3        29.78S
WINIFRED       CLOUDY    16  15  95 W13       29.82S WCI   2
$$

MTZ017>020-022>027-061-062-241000-
NORTHEAST MONTANA

CITY           SKY/WX    TMP DP  RH WIND       PRES   REMARKS
GLASGOW        CLOUDY    20  16  84 W8        29.86S WCI  10
JORDAN           N/A     22  17  81 NW6       29.84S WCI  14
SIDNEY         FLURRIES  22  19  89 W7        29.87R WCI  13
WOLF POINT     CLOUDY    22  16  78 W5        29.88R
PLENTYWOOD       N/A     18  16  93 NW8       29.84R WCI   7
$$

MTZ028>42-056>058-241000-
SOUTHCENTRAL AND SOUTHEAST MONTANA

CITY           SKY/WX    TMP DP  RH WIND       PRES   REMARKS
BAKER          CLOUDY    21  19  92 W5        29.81R FOG
BILLINGS       LGT SNOW  23  22  96 NE6       29.79R FOG     WCI  16
LIVINGSTON     FLURRIES  21  18  88 E12       29.72R WCI   9
MILES CITY     CLOUDY    24  21  88 N9        29.84R FOG     WCI  14
BIG TIMBER     CLOUDY    21  21 100 E3        29.77S
FORSYTH          N/A     23  21  93 CALM      29.84S
HARLOWTON      MOCLDY    18  16  92 N15       29.76R WCI   3
$$

REGIONAL REPORTS...DAKOTAS

CITY           SKY/WX    TMP DP  RH WIND       PRES   REMARKS
WILLISTON      CLOUDY    22  18  85 NW7       29.86R WCI  13
MINOT          CLOUDY    24  19  81 W9        29.82R WCI  14
DICKINSON      CLOUDY    20  17  88 N3        29.80R
BEACH          CLOUDY    19  19 100 NW7       29.85R WCI  10
CROSBY         CLOUDY    19  19 100 NW8       29.86R WCI   9
TIOGA          CLOUDY    19  19 100 NW10      29.83S WCI   8
WATFORD CITY   MIX PCPN  21  19  93 W7        29.85R WCI  13
BISMARCK       CLOUDY    25  20  81 N10       29.85R WCI  15
GRAND FORKS    CLOUDY    26  19  74 W9        29.85S WCI  17
FARGO          CLOUDY    32  26  78 SW5       29.86R
BUFFALO SD       N/A     23  19  85 N9        29.71S WCI  13
RAPID CITY     CLOUDY    23  21  92 N21       29.72S FOG     WCI   8
$$

REGIONAL REPORTS...WYOMING/IDAHO/WASHINGTON

CITY           SKY/WX    TMP DP  RH WIND       PRES   REMARKS
GILLETTE       FOG       17  16  95 N12       29.68R VSB 3/4 WCI   4
SHERIDAN       FLURRIES  20  18  92 W6        29.74S WCI  12
BUFFALO WY     LGT SNOW  18  14  84 N17G26    29.66S FOG     WCI   3
CODY           LGT SNOW  19  16  88 NW15      29.67S FOG     WCI   5
YELLOWSTONE LA   N/A     17  11  77 CALM      29.52R
IDAHO FALLS    LGT SNOW  24  23  96 W8        29.58R FOG     WCI  15
SALMON         CLOUDY     9   7  92 CALM      29.71R
BOISE          CLOUDY    28  23  81 W10       29.70R WCI  19
SPOKANE        FOG       30  29  96 W7        29.89R VSB 1/4 WCI  23
$$

REGIONAL REPORTS...ALBERTA

CITY           SKY/WX    TMP DP  RH WIND       PRES   REMARKS
EDMONTON         N/A     16   9  73 W2        29.89S VSB 1
CALGARY        CLOUDY    21  19  93 CALM      29.81S FOG
LETHBRIDGE     CLOUDY    14 N/A N/A SE5       29.85R
MEDICINE HAT   CLOUDY    18  14  86 W6        29.90R WCI   9
WATERTON GATE    N/A     12   9  85 SW6         N/A  WCI   3
CARDSTON         N/A     14  10  85 S6          N/A  WCI   5
MILK RIVER       N/A      7   5  92 NW1         N/A
ONEFOUR          N/A     18  16  93 NW13        N/A  WCI   4
$$

REGIONAL REPORTS...SASKATCHEWAN

CITY           SKY/WX    TMP DP  RH WIND       PRES   REMARKS
SWIFT CURRENT  LGT SNOW   9   7  92 W10       29.82R WCI  -6
REGINA         CLOUDY    14  10  85 NW13      29.85R WCI   0
SASKATOON      LGT SNOW  10   7  85 NW7       29.90S WCI   0
ROCKGLEN         N/A     14  12  92 NW7         N/A  WCI   4
ASSINIBOIA       N/A     12  10  92 CALM        N/A
$$




USA.gov is the U.S. government's official web portal to all federal, state and local government web resources and services.